Weather History for Piney Island, NC

Change the Weather History Date:

Saturday, October 26, 2013

  Actual Average (KMRH) Record (KMRH)
Temperature  
Mean Temperature 56 °F -  
Max Temperature 63 °F 73 °F 83 °F (1991)
Min Temperature 50 °F 54 °F 37 °F (1962)
Degree Days  
Heating Degree Days 9    
Growing Degree Days 6 (Base 50)    
Moisture  
Dew Point 40 °F    
Average Humidity 58    
Maximum Humidity 77    
Minimum Humidity 44    
Precipitation  
Precipitation 0.00 in - - ()
Sea Level Pressure  
Sea Level Pressure 30.23 in    
Wind  
Wind Speed 7 mph (NW)    
Max Wind Speed 10 mph    
Max Gust Speed -    
Averages and records for this station are not official NWS values.
T = Trace of Precipitation, MM = Missing Value Source: NWS Daily Summary

Daily Weather History Graph

Daily Weather History Graph

Search for Another Location

Airport:

Trip Planner

Search our weather history database for the weather conditions in past years. The results will help you decide how hot, cold, wet, or windy it might be!

Date:

Astronomy

Oct. 26, 2013 Rise Set
Actual Time 7:21 AM EDT 6:17 PM EDT
Civil Twilight 6:55 AM EDT 6:43 PM EDT
Nautical Twilight 6:25 AM EDT 7:13 PM EDT
Astronomical Twilight 5:56 AM EDT 7:42 PM EDT
Moon No Moon Rise 1:34 PM EDT (10/26)
Length of Visible Light 11h 47m
Length of Day
10h 55m
Waning Gibbous, 53% of the Moon is Illuminated
Oct 26
Waning Gibbous
Oct 26
Last Quarter
Nov 3
New
Nov 10
First Quarter
Nov 17
Full

Hourly Weather History & Observations

Time (EDT) Temp. Dew Point Humidity Pressure Visibility Wind Dir Wind Speed Gust Speed Precip Events Conditions
12:56 AM 51.1 °F 33.1 °F 50% 30.34 in - North 6.9 mph - N/A   Clear
1:56 AM 51.1 °F 35.1 °F 54% 30.33 in - North 5.8 mph - N/A   Clear
2:56 AM 52.0 °F 34.0 °F 50% 30.30 in - North 6.9 mph - N/A   Clear
3:56 AM 51.1 °F 36.0 °F 56% 30.30 in - North 8.1 mph - N/A   Clear
4:56 AM 50.0 °F 37.9 °F 63% 30.30 in - NNW 8.1 mph - N/A   Clear
5:56 AM 50.0 °F 39.0 °F 66% 30.30 in - NNW 9.2 mph - N/A   Clear
6:56 AM 50.0 °F 39.0 °F 66% 30.30 in - NNW 9.2 mph - N/A   Clear
7:56 AM 52.0 °F 37.9 °F 59% 30.30 in - North 9.2 mph - N/A   Clear
8:56 AM 55.0 °F 37.0 °F 51% 30.32 in - NNW 10.4 mph - N/A   Clear
9:56 AM 55.9 °F 37.9 °F 51% 30.31 in - NNW 10.4 mph - N/A   Clear
10:56 AM 57.0 °F 37.9 °F 49% 30.30 in - NNW 10.4 mph - N/A   Clear
11:56 AM 57.9 °F 39.9 °F 51% 30.28 in - NNW 8.1 mph - N/A   Clear
12:56 PM 60.1 °F 39.9 °F 47% 30.26 in - North 6.9 mph - N/A   Clear
1:56 PM 60.1 °F 39.9 °F 47% 30.22 in - WNW 5.8 mph - N/A   Scattered Clouds
2:56 PM 62.1 °F 39.9 °F 44% 30.19 in - Variable 6.9 mph - N/A   Mostly Cloudy
3:56 PM 61.0 °F 43.0 °F 52% 30.17 in - NW 4.6 mph - N/A   Scattered Clouds
4:56 PM 61.0 °F 44.1 °F 54% 30.15 in - West 6.9 mph - N/A   Scattered Clouds
5:56 PM 60.1 °F 45.0 °F 57% 30.14 in - SW 3.5 mph - N/A   Clear
6:56 PM 57.9 °F 46.0 °F 65% 30.13 in - South 4.6 mph - N/A   Clear
7:56 PM 55.0 °F 46.9 °F 74% 30.13 in - SSW 6.9 mph - N/A   Clear
8:56 PM 54.0 °F 46.9 °F 77% 30.14 in - SSW 8.1 mph - N/A   Clear
9:56 PM 53.1 °F 46.0 °F 77% 30.14 in - SW 6.9 mph - N/A   Clear
10:56 PM 52.0 °F 44.1 °F 74% 30.13 in - SW 6.9 mph - N/A   Clear
11:56 PM 52.0 °F 41.0 °F 66% 30.12 in - WSW 6.9 mph - N/A   Clear